Showing default

TIANQI 26, 59910

Orbit data source: Space-Track

TIANQI 26, 59910 is a payload satellite owned by Guodian Gaokeji (CN) in LEO that was launched on Wed, 29 May 2024 UTC via a GUSHENXING 1 launch vehicle from the Yellow Sea Launch Area, China (YSLA). Payload-class satellites include a variety of spacecraft equipped with specific instruments for various scientific and technological missions. These include communications satellites like Starlink; space stations such as the ISS; scientific satellites like the Hubble; Earth observation satellites from companies like Planet Labs, Umbra, and HawkEye 360; GPS; miniature CubeSats for education and research; and military/defense satellites.

Loading next visibility...
Identifier
59910, 2024-102B
Orbit
LEO
Country
Flag of CNCN / PRC
Related business
Manufacturer
Shanghai ASES
Mission
Operational Commercial Communications
Bus & Motor
STARLIGHTB, Unknown motor
Mass
40 kg wet, ~40 kg dry
Launch date (UTC)
2024-05-29 (2 years ago)
Launch vehicle
GUSHENXING 1
Launch site
Yellow Sea Launch Area, China (YSLA)
Object type
Payload
Rocket body
Debris
Shape & HBR
Box, 0.3 m
Radar Cross Section
0.195 m², Medium (>0.1 m² and < 1m²)

Expand to show TLE details & history
Last TLE update: 2 days ago

TLE from 2 days ago
0 TIANQI 26
1 59910U 24102B   26171.43483569  .00000009  00000-0  93841-4 0  9990
2 59910  44.9731 247.0884 0011460 256.1394 103.8164 13.99185892105362
Epoch: 2026-06-20T10:26Z
TLE epoch observation values (Epoch: 2026-06-20T10:26:09.803Z)
Latitude
0.00001°
Longitude
-178.10195°
Altitude
898.611 km
Speed
7.403 km/s
True Right ascension
16h 28m 21s
True Declination
0° 00' 00"
Sunlit
Object was in full shadow at epoch
Visualization orbit readout
Latitude
Unknown
Longitude
Unknown
Altitude
Unknown
Speed
Unknown
Apparent Right ascension
Unknown
Apparent Declination
Unknown
Sunlit
N/A
Visualization observer readout
Local Sidereal Time
00:33:48
Azimuth
Unknown
Elevation
Unknown
Doppler factor
Unknown
Orbital elements
Apogee altitude
906.477 km
Perigee altitude
889.799 km
Semi-major axis
7,276.275 km
Eccentricity
0.00115
Inclination
44.9731°
RAAN
247.0884°
Arg. of periapsis
256.1394°
True anomaly
103.94388°
Mean anomaly
103.8164°
Eccentric anomaly
103.88014°
Mean motion
3.49687 °/min
Orbital period
102.95 mins
BSTAR
0.000093841
Loading maneuver chart data...
Computing Atmospheric mass density...
Loading historical data...
Loading historical data...
Loading historical data...
Loading historical data...
Loading historical data...
Loading historical data...
Loading historical data...
Other satellites on launch #102 in the year 2024 (2024-05-29 UTC)

Documentation

Showing up to 5 results
|